This is the latest recevied weather packets stored in our database for station/object CT2HRB-13. If no packets are shown the sender has not sent any weather packets the latest 10 day(s).
| Time | Temp. | Humidity | Pressure | Rain* | Wind** | Luminosity | Snow |
|---|---|---|---|---|---|---|---|
| 1778156102 | 18.89° C | 52% | 1010.7 hPa | - | - | - | - |
| 1778155802 | 19.44° C | 52% | 1010.8 hPa | - | - | - | - |
| 1778155502 | 19.44° C | 51% | 1010.8 hPa | - | - | - | - |
| 1778155201 | 18.89° C | 53% | 1010.9 hPa | - | - | - | - |
| 1778154902 | 18.89° C | 52% | 1011 hPa | - | - | - | - |
| 1778154601 | 18.89° C | 53% | 1010.9 hPa | - | - | - | - |
| 1778154301 | 19.44° C | 51% | 1011 hPa | - | - | - | - |
| 1778154002 | 19.44° C | 53% | 1011 hPa | - | - | - | - |
| 1778153702 | 19.44° C | 52% | 1011 hPa | - | - | - | - |
| 1778153402 | 18.89° C | 54% | 1011 hPa | - | - | - | - |
| 1778153101 | 18.89° C | 53% | 1011.1 hPa | - | - | - | - |
| 1778152801 | 18.89° C | 53% | 1011.1 hPa | - | - | - | - |
| 1778152502 | 18.89° C | 55% | 1011.1 hPa | - | - | - | - |
| 1778152202 | 18.33° C | 53% | 1011 hPa | - | - | - | - |
| 1778151901 | 18.33° C | 55% | 1011 hPa | - | - | - | - |
| 1778151601 | 18.89° C | 55% | 1011 hPa | - | - | - | - |
| 1778151302 | 18.33° C | 55% | 1011 hPa | - | - | - | - |
| 1778151002 | 18.33° C | 56% | 1011.1 hPa | - | - | - | - |
| 1778150701 | 18.89° C | 56% | 1011.2 hPa | - | - | - | - |
| 1778150401 | 18.33° C | 57% | 1011.1 hPa | - | - | - | - |
| 1778150102 | 17.78° C | 54% | 1011 hPa | - | - | - | - |
| 1778149802 | 17.78° C | 56% | 1011 hPa | - | - | - | - |
| 1778149502 | 17.78° C | 56% | 1011.1 hPa | - | - | - | - |
| 1778149201 | 17.78° C | 57% | 1011 hPa | - | - | - | - |
| 1778148902 | 18.33° C | 58% | 1011.1 hPa | - | - | - | - |
* Rain since midnight (hover to see other rain measurements)
** Current wind speed in m/s (hover to see current wind gust speed)